Location: Bo?a Wola
(50.4192°N, 19.7966°E)
Time: 11:58:53
(UTC+00:00)

Cosmos 2297 Rocket - Pass Details

Date: 15 June 2024
Orbit: 838 x 843 km, 71.0° (Epoch: 16 July)

Event Time Altitude Azimuth Distance (km) Brightness Sun altitude
Exits shadow 00:24:31 - 253° (WSW) 2,977 4.7 -12.8°
Reaches altitude 10° 00:26:09 10° 262° (W) 2,456 4.3 -12.7°
Maximum altitude 00:30:49 26° 318° (NW) 1,596 3.9 -12.4°
Drops below altitude 10° 00:35:33 10° 15° (NNE) 2,469 6.0 -12.1°
Sets 00:38:25 0° 28° (NNE) 3,408 7.6 -11.8°
